When you browse on this site, cookies collect data to enhance your experience and personalize the content and advertising you see.
Visit our Privacy Policy to learn more. By continuing to use the site, you agree to this use of cookies and data.
  • en France
  • Liste des pays
  • À 7 jours
  • Température de l'eau
  • Carte satellitaire
  • Carte météo
  • Widgets météo
  • user-avatar
    Se connecter

    Météo par heure à Annaba

    Ce jour, 23 Janvier, Mercredi

    Heure Température Précipitation Vent Pression Humidité
    00:00 +6°C° 0.2 mm 4 m/s 754 mmHg 81%
    01:00 +5°C° 0 mm 5 m/s 754 mmHg 79%
    02:00 +5°C° 0 mm 5 m/s 753 mmHg 78%
    03:00 +5°C° 0 mm 5 m/s 752 mmHg 76%
    04:00 +5°C° 0 mm 5 m/s 752 mmHg 75%
    05:00 +5°C° 0 mm 5 m/s 751 mmHg 74%
    06:00 +5°C° 0 mm 5 m/s 751 mmHg 72%
    07:00 +5°C° 0 mm 5 m/s 751 mmHg 70%
    08:00 +6°C° 0.1 mm 5 m/s 750 mmHg 67%
    09:00 +7°C° 0.1 mm 5 m/s 750 mmHg 65%
    10:00 +10°C° 0.1 mm 4 m/s 750 mmHg 63%
    11:00 +9°C° 0.3 mm 6 m/s 749 mmHg 64%
    12:00 +10°C° 0.3 mm 7 m/s 749 mmHg 66%
    13:00 +11°C° 0.3 mm 8 m/s 748 mmHg 67%
    14:00 +11°C° 0.5 mm 8 m/s 748 mmHg 69%
    15:00 +11°C° 0.5 mm 8 m/s 747 mmHg 70%
    16:00 +11°C° 0.5 mm 8 m/s 746 mmHg 72%
    17:00 +10°C° 1.5 mm 7 m/s 745 mmHg 77%
    18:00 +9°C° 1.5 mm 6 m/s 744 mmHg 82%
    19:00 +8°C° 1.5 mm 5 m/s 743 mmHg 86%
    20:00 +8°C° 2.5 mm 6 m/s 743 mmHg 86%
    21:00 +9°C° 2.5 mm 8 m/s 743 mmHg 86%
    22:00 +8°C° 2.5 mm 9 m/s 743 mmHg 86%
    23:00 +7°C° 1.1 mm 9 m/s 742 mmHg 85%

    Demain, 24 Janvier, Jeudi

    Heure Température Précipitation Vent Pression Humidité
    00:00 +7°C° 1.1 mm 9 m/s 742 mmHg 83%
    01:00 +6°C° 1.1 mm 9 m/s 742 mmHg 82%
    02:00 +6°C° 1.9 mm 9 m/s 742 mmHg 82%
    03:00 +5°C° 1.9 mm 9 m/s 742 mmHg 82%
    04:00 +5°C° 1.9 mm 9 m/s 743 mmHg 82%
    05:00 +4°C° 0.9 mm 11 m/s 742 mmHg 78%
    06:00 +4°C° 0.9 mm 12 m/s 742 mmHg 74%
    07:00 +4°C° 0.9 mm 13 m/s 742 mmHg 70%
    08:00 +5°C° 0.2 mm 14 m/s 742 mmHg 68%
    09:00 +5°C° 0.2 mm 15 m/s 741 mmHg 66%
    10:00 +5°C° 0.2 mm 16 m/s 741 mmHg 65%
    11:00 +5°C° 1.5 mm 17 m/s 741 mmHg 69%
    12:00 +5°C° 1.5 mm 18 m/s 741 mmHg 74%
    13:00 +5°C° 1.5 mm 18 m/s 741 mmHg 78%
    14:00 +5°C° 5.6 mm 18 m/s 741 mmHg 81%
    15:00 +5°C° 5.6 mm 17 m/s 742 mmHg 84%
    16:00 +5°C° 5.6 mm 16 m/s 742 mmHg 87%
    17:00 +6°C° 4.3 mm 15 m/s 743 mmHg 87%
    18:00 +6°C° 4.3 mm 15 m/s 744 mmHg 87%
    19:00 +6°C° 4.3 mm 14 m/s 745 mmHg 87%
    20:00 +6°C° 3.5 mm 14 m/s 746 mmHg 87%
    21:00 +7°C° 3.5 mm 13 m/s 747 mmHg 87%
    22:00 +7°C° 3.5 mm 13 m/s 748 mmHg 87%
    23:00 +7°C° 2.6 mm 12 m/s 749 mmHg 87%

    Après-demain, 25 Janvier, Vendredi

    Heure Température Précipitation Vent Pression Humidité
    00:00 +7°C° 2.6 mm 12 m/s 749 mmHg 86%
    01:00 +7°C° 2.6 mm 11 m/s 750 mmHg 85%
    02:00 +7°C° 0.9 mm 11 m/s 750 mmHg 84%
    03:00 +7°C° 0.9 mm 10 m/s 751 mmHg 82%
    04:00 +7°C° 0.9 mm 10 m/s 751 mmHg 80%
    05:00 +7°C° 0.3 mm 10 m/s 752 mmHg 80%
    06:00 +6°C° 0.3 mm 10 m/s 752 mmHg 81%
    07:00 +6°C° 0.3 mm 10 m/s 753 mmHg 81%
    08:00 +6°C° 0.5 mm 10 m/s 753 mmHg 79%
    09:00 +6°C° 0.5 mm 10 m/s 754 mmHg 78%
    10:00 +6°C° 0.5 mm 10 m/s 754 mmHg 77%
    11:00 +7°C° 0.7 mm 11 m/s 754 mmHg 74%
    12:00 +7°C° 0.7 mm 12 m/s 754 mmHg 72%
    13:00 +8°C° 0.7 mm 12 m/s 754 mmHg 69%
    14:00 +7°C° 0.9 mm 12 m/s 753 mmHg 72%
    15:00 +7°C° 0.9 mm 13 m/s 753 mmHg 75%
    16:00 +7°C° 0.9 mm 13 m/s 753 mmHg 78%
    17:00 +7°C° 0.9 mm 11 m/s 753 mmHg 81%
    18:00 +7°C° 0.9 mm 10 m/s 753 mmHg 83%
    19:00 +6°C° 0.9 mm 9 m/s 754 mmHg 86%
    20:00 +6°C° 2.7 mm 9 m/s 754 mmHg 88%
    21:00 +6°C° 2.7 mm 8 m/s 754 mmHg 91%
    22:00 +6°C° 2.7 mm 8 m/s 754 mmHg 93%
    23:00 +6°C° 1.1 mm 8 m/s 754 mmHg 88%

    26 Janvier, Samedi

    Heure Température Précipitation Vent Pression Humidité
    00:00 +7°C° 1.1 mm 9 m/s 754 mmHg 82%
    01:00 +7°C° 1.1 mm 9 m/s 755 mmHg 77%
    02:00 +6°C° 0.7 mm 8 m/s 755 mmHg 79%
    03:00 +6°C° 0.7 mm 7 m/s 755 mmHg 82%
    04:00 +7°C° 0.7 mm 6 m/s 755 mmHg 84%
    05:00 +7°C° 1 mm 6 m/s 756 mmHg 84%
    06:00 +7°C° 1 mm 5 m/s 756 mmHg 83%
    07:00 +7°C° 1 mm 5 m/s 757 mmHg 83%
    08:00 +8°C° 0.5 mm 5 m/s 757 mmHg 79%
    09:00 +8°C° 0.5 mm 5 m/s 758 mmHg 76%
    10:00 +9°C° 0.5 mm 5 m/s 759 mmHg 72%
    11:00 +10°C° 0.4 mm 6 m/s 759 mmHg 71%
    12:00 +10°C° 0.4 mm 6 m/s 759 mmHg 70%
    13:00 +11°C° 0.4 mm 7 m/s 760 mmHg 69%
    14:00 +11°C° 0.2 mm 7 m/s 760 mmHg 70%
    15:00 +11°C° 0.2 mm 7 m/s 759 mmHg 71%
    16:00 +11°C° 0.2 mm 7 m/s 759 mmHg 71%
    17:00 +10°C° 0 mm 7 m/s 760 mmHg 73%
    18:00 +9°C° 0 mm 6 m/s 760 mmHg 75%
    19:00 +8°C° 0 mm 6 m/s 760 mmHg 78%
    20:00 +8°C° 0 mm 6 m/s 760 mmHg 77%
    21:00 +8°C° 0 mm 6 m/s 760 mmHg 76%
    22:00 +8°C° 0 mm 5 m/s 760 mmHg 75%
    23:00 +8°C° 0 mm 5 m/s 760 mmHg 77%

    27 Janvier, Dimanche

    Heure Température Précipitation Vent Pression Humidité
    00:00 +8°C° 0 mm 4 m/s 760 mmHg 78%
    01:00 +8°C° 0 mm 4 m/s 760 mmHg 80%
    02:00 +8°C° 0 mm 4 m/s 759 mmHg 79%
    03:00 +8°C° 0 mm 5 m/s 759 mmHg 79%
    04:00 +8°C° 0 mm 5 m/s 758 mmHg 78%
    05:00 +7°C° 0 mm 5 m/s 758 mmHg 78%
    06:00 +6°C° 0 mm 5 m/s 758 mmHg 78%
    07:00 +6°C° 0 mm 4 m/s 757 mmHg 78%
    08:00 +7°C° 0 mm 4 m/s 757 mmHg 74%
    09:00 +9°C° 0 mm 5 m/s 757 mmHg 71%
    10:00 +10°C° 0 mm 5 m/s 757 mmHg 67%
    11:00 +13°C° 0 mm 5 m/s 756 mmHg 63%
    12:00 +14°C° 0 mm 5 m/s 755 mmHg 60%
    13:00 +16°C° 0 mm 6 m/s 755 mmHg 56%
    14:00 +15°C° 0.1 mm 6 m/s 754 mmHg 60%
    15:00 +14°C° 0.1 mm 7 m/s 753 mmHg 64%
    16:00 +13°C° 0.1 mm 8 m/s 753 mmHg 69%
    17:00 +12°C° 0.3 mm 8 m/s 753 mmHg 72%
    18:00 +11°C° 0.3 mm 8 m/s 753 mmHg 76%
    19:00 +10°C° 0.3 mm 8 m/s 753 mmHg 79%
    20:00 +10°C° 0.3 mm 7 m/s 754 mmHg 80%
    21:00 +9°C° 0.3 mm 6 m/s 754 mmHg 81%
    22:00 +9°C° 0.3 mm 5 m/s 754 mmHg 83%
    23:00 +8°C° 0.7 mm 4 m/s 754 mmHg 85%

    28 Janvier, Lundi

    Heure Température Précipitation Vent Pression Humidité
    00:00 +9°C° 0.7 mm 3 m/s 753 mmHg 87%
    01:00 +8°C° 0.7 mm 2 m/s 753 mmHg 89%
    02:00 +7°C° 1.3 mm 4 m/s 753 mmHg 89%
    03:00 +7°C° 1.3 mm 5 m/s 752 mmHg 90%
    04:00 +6°C° 1.3 mm 7 m/s 752 mmHg 90%
    05:00 +7°C° 0.8 mm 6 m/s 752 mmHg 88%
    06:00 +5°C° 0.8 mm 6 m/s 753 mmHg 87%
    07:00 +6°C° 0.8 mm 5 m/s 753 mmHg 85%
    08:00 +7°C° 0.6 mm 5 m/s 753 mmHg 82%
    09:00 +7°C° 0.6 mm 5 m/s 754 mmHg 79%
    10:00 +7°C° 0.6 mm 4 m/s 754 mmHg 75%
    11:00 +8°C° 0.6 mm 5 m/s 754 mmHg 75%
    12:00 +8°C° 0.6 mm 5 m/s 753 mmHg 75%
    13:00 +8°C° 0.6 mm 6 m/s 753 mmHg 74%
    14:00 +7°C° 1.3 mm 6 m/s 753 mmHg 77%
    15:00 +7°C° 1.3 mm 6 m/s 753 mmHg 79%
    16:00 +5°C° 1.3 mm 7 m/s 753 mmHg 82%
    17:00 +4°C° 0.5 mm 6 m/s 753 mmHg 81%
    18:00 +4°C° 0.5 mm 6 m/s 754 mmHg 80%
    19:00 +3°C° 0.5 mm 6 m/s 754 mmHg 78%
    20:00 +3°C° 0.6 mm 6 m/s 754 mmHg 80%
    21:00 +3°C° 0.6 mm 5 m/s 754 mmHg 81%
    22:00 +3°C° 0.6 mm 5 m/s 755 mmHg 83%
    23:00 +3°C° 0.9 mm 5 m/s 755 mmHg 83%
    Voir plus